This is the latest recevied weather packets stored in our database for station/object KC4LZN. If no packets are shown the sender has not sent any weather packets the latest 10 day(s).
| Time | Temp. | Humidity | Pressure | Rain* | Wind** | Luminosity | Snow |
|---|---|---|---|---|---|---|---|
| 1777682329 | 27.22° C | 65% | 1011.5 hPa | 0 mm | - | 0 W/m² | - |
| 1777682026 | 27.22° C | 63% | 1011.4 hPa | 0 mm | - | 0 W/m² | - |
| 1777681722 | 27.78° C | 63% | 1011.3 hPa | 0 mm | - | 0 W/m² | - |
| 1777681420 | 27.78° C | 61% | 1011.3 hPa | 0 mm | - | 0 W/m² | - |
| 1777681117 | 27.78° C | 59% | 1010.9 hPa | 0 mm | - | 0 W/m² | - |
| 1777680815 | 28.33° C | 58% | 1011.1 hPa | 0 mm | - | 1 W/m² | - |
| 1777680512 | 28.33° C | 57% | 1010.8 hPa | 0 mm | - | 1 W/m² | - |
| 1777680210 | 28.33° C | 56% | 1010.8 hPa | 0 mm | - | 3 W/m² | - |
| 1777679906 | 28.33° C | 55% | 1010.7 hPa | 0 mm | - | 5 W/m² | - |
| 1777679602 | 28.33° C | 56% | 1010.8 hPa | 0 mm | - | 7 W/m² | - |
| 1777679297 | 28.89° C | 57% | 1010.7 hPa | 0 mm | - | 11 W/m² | - |
| 1777678995 | 28.89° C | 57% | 1010.7 hPa | 0 mm | - | 14 W/m² | - |
| 1777678693 | 28.89° C | 57% | 1010.7 hPa | 0 mm | - | 20 W/m² | - |
| 1777678390 | 28.89° C | 58% | 1010.6 hPa | 0 mm | - | 26 W/m² | - |
| 1777678085 | 28.89° C | 58% | 1010.4 hPa | 0 mm | - | 28 W/m² | - |
| 1777677783 | 28.89° C | 58% | 1010.6 hPa | 0 mm | - | 26 W/m² | - |
| 1777677480 | 28.89° C | 59% | 1010.2 hPa | 0 mm | - | 28 W/m² | - |
| 1777677178 | 28.89° C | 58% | 1010.2 hPa | 0 mm | - | 36 W/m² | - |
| 1777676876 | 29.44° C | 58% | 1010.3 hPa | 0 mm | - | 37 W/m² | - |
| 1777676575 | 29.44° C | 57% | 1010.4 hPa | 0 mm | - | 37 W/m² | - |
| 1777676272 | 30° C | 56% | 1010.2 hPa | 0 mm | - | 51 W/m² | - |
| 1777675970 | 30.56° C | 51% | 1010.2 hPa | 0 mm | - | 89 W/m² | - |
| 1777675665 | 30.56° C | 51% | 1010.1 hPa | 0 mm | - | 133 W/m² | - |
| 1777675363 | 30.56° C | 50% | 1009.8 hPa | 0 mm | - | 141 W/m² | - |
| 1777675059 | 30.56° C | 50% | 1010 hPa | 0 mm | - | 102 W/m² | - |
* Rain latest hour (hover to see other rain measurements)
** Current wind speed in m/s (hover to see current wind gust speed)